Flag for Canada Weather past 2 weeks in Winnipeg, Manitoba, Canada

Now
67 °F

Mild.


Feels Like: 67 °F
Forecast: 59 / 72 °F
Wind: 3 mph from Southwest

Location: Winnipeg The Forks

Current Time: Jul 5, 2015 at 10:46:56 AM

Latest Report: Jul 5, 2015 at 10:00 AM


Visibility: N/A

Pressure: 29.76 "Hg

Humidity: 89%

Dew point: 64 °F

Location of WinnipegLocation

Historic Weather in Winnipeg — Graph

°F

Winnipeg temperature yesterday

Maximum temperature yesterday: 84 °F (at 3:00 PM)
Minimum temperature yesterday: 64 °F (at 10:00 PM)
Average temperature yesterday: 71 °F

Past Weeks' High & Low Weather Summary

 TemperatureHumidityPressure
High84 °F (Jul 4, 3:00 PM)99% (Jul 4, 10:00 PM)30.08 "Hg (Jul 4, 10:00 PM)
Low56 °F (Jun 23, 5:00 AM)35% (Jun 20, 6:00 PM)29.61 "Hg (Jul 4, 6:00 PM)
Average70 °F67%29.87 "Hg
* Reported Jun 20 10:00 AM — Jul 5 10:00 AM, Winnipeg, Weather by CustomWeather, © 2015

Note: Actual official high and low records may vary slightly from our data, if they occured in-between our weather recording intervals... More about our weather records

Advertising

Winnipeg weather history for previous 24 hours

 ConditionsComfort  
Time TempWeatherWind HumidityBarometerVisibility
10:00 AM
Sun, Jul 5
67 °FMild.3 mph89%29.76 "HgN/A
9:00 AM67 °FMild.3 mph90%29.78 "HgN/A
8:00 AM66 °FMild.3 mph92%29.78 "HgN/A
7:00 AM65 °FMild.3 mph91%29.78 "HgN/A
6:00 AM65 °FMild.1 mph91%29.77 "HgN/A
5:00 AM65 °FMild.2 mph92%29.76 "HgN/A
3:00 AM64 °FMild.2 mph94%29.74 "HgN/A
2:00 AM65 °FMild.1 mph91%29.74 "HgN/A
1:00 AM65 °FMild.5 mph92%29.75 "HgN/A
12:00 AM65 °FMild.2 mph93%29.72 "HgN/A
11:00 PM
Sat, Jul 4
65 °FMild.1 mph92%29.71 "HgN/A
10:00 PM64 °FMild.2 mph99%29.74 "HgN/A
9:00 PM65 °FMild.2 mph93%29.73 "HgN/A
8:00 PM65 °FMild.6 mph92%29.75 "HgN/A
7:00 PM81 °FWarm.5 mph62%29.64 "HgN/A
6:00 PM82 °FWarm.7 mph61%29.61 "HgN/A
3:00 PM84 °FWarm.8 mph57%29.70 "HgN/A
2:00 PM80 °FWarm.6 mph65%29.71 "HgN/A
12:00 PM80 °FWarm.5 mph63%29.75 "HgN/A
11:00 AM77 °FWarm.5 mph66%29.77 "HgN/A
10:00 AM74 °FMild.3 mph67%29.79 "HgN/A
Weather by CustomWeather, © 2015

See weather overviewHow to use our weather pages